VIR731 EDDM-EDDF

Flight info

Callsign VIR731
Flight time 0h 41m
Altitude 24000
Route GIVMI6Q GIVMI Y101 ERNAS T161 DEBHI DEBHI1B
Aircraft A35K/H-SDE2E3GHIJ3J4J5LM1ORWXY/LB1D1

Departure

Time 2026-05-04 16:35
Airport Munich Airport (EDDM)

Arrival

Time 2026-05-04 17:16
Airport Frankfurt Main Airport (EDDF)
Time Latitude Longitude Altitude Speed Heading
2026-05-04 15:49 48.35261 11.80028 1491 ft 0 kts 263°
2026-05-04 16:19 48.35261 11.80037 1491 ft 4 kts 264°
2026-05-04 16:19 48.35264 11.80107 1491 ft 4 kts 277°
2026-05-04 16:20 48.35256 11.80143 1491 ft 0 kts 353°
2026-05-04 16:23 48.35277 11.80139 1491 ft 5 kts 353°
2026-05-04 16:24 48.35575 11.80112 1491 ft 16 kts 352°
2026-05-04 16:25 48.35775 11.80066 1491 ft 9 kts 352°
2026-05-04 16:26 48.35801 11.79664 1491 ft 15 kts 263°
2026-05-04 16:26 48.35983 11.79497 1491 ft 12 kts 353°
2026-05-04 16:27 48.36020 11.79490 1491 ft 0 kts 353°
2026-05-04 16:28 48.36062 11.79478 1491 ft 7 kts 339°
2026-05-04 16:28 48.36085 11.79233 1491 ft 12 kts 264°
2026-05-04 16:29 48.36048 11.78742 1491 ft 0 kts 263°
2026-05-04 16:30 48.36039 11.78623 1491 ft 9 kts 263°
2026-05-04 16:31 48.36019 11.78369 1491 ft 15 kts 263°
2026-05-04 16:31 48.35972 11.77770 1491 ft 23 kts 263°
2026-05-04 16:32 48.35916 11.77030 1491 ft 8 kts 263°
2026-05-04 16:33 48.35961 11.76843 1491 ft 11 kts 333°
2026-05-04 16:33 48.36142 11.76798 1491 ft 16 kts 354°
2026-05-04 16:34 48.36292 11.76972 1491 ft 17 kts 80°
2026-05-04 16:34 48.36336 11.77531 1491 ft 93 kts 84°
2026-05-04 16:35 48.36730 11.82571 2876 ft 182 kts 79°
2026-05-04 16:35 48.40340 11.86074 4076 ft 261 kts
2026-05-04 16:36 48.42131 11.85591 4862 ft 267 kts 332°
2026-05-04 16:36 48.44775 11.81592 6509 ft 277 kts 308°
2026-05-04 16:37 48.47253 11.77072 6998 ft 281 kts 309°
2026-05-04 16:37 48.48516 11.74813 7035 ft 283 kts 309°
2026-05-04 16:37 48.51097 11.70256 8343 ft 288 kts 310°
2026-05-04 16:38 48.53727 11.65620 10194 ft 295 kts 310°
2026-05-04 16:39 48.58104 11.57868 11308 ft 352 kts 310°
2026-05-04 16:39 48.61389 11.52036 12170 ft 372 kts 310°
2026-05-04 16:40 48.64783 11.46001 13242 ft 381 kts 310°
2026-05-04 16:40 48.68239 11.39839 14214 ft 388 kts 310°
2026-05-04 16:41 48.72165 11.34155 15075 ft 395 kts 322°
2026-05-04 16:41 48.79099 11.27172 16220 ft 403 kts 327°
2026-05-04 16:42 48.86026 11.19735 17295 ft 411 kts 319°
2026-05-04 16:43 48.90333 11.13908 18021 ft 416 kts 317°
2026-05-04 16:43 48.94612 11.07894 18745 ft 421 kts 317°
2026-05-04 16:43 48.96762 11.04862 18967 ft 423 kts 317°
2026-05-04 16:44 49.05457 10.92624 20040 ft 431 kts 317°
2026-05-04 16:45 49.09893 10.86384 20725 ft 436 kts 317°
2026-05-04 16:46 49.16659 10.76810 21706 ft 444 kts 316°
2026-05-04 16:46 49.21162 10.70356 22313 ft 449 kts 315°
2026-05-04 16:47 49.25512 10.63434 22909 ft 454 kts 313°
2026-05-04 16:47 49.29908 10.56429 23462 ft 459 kts 314°
2026-05-04 16:48 49.36500 10.45640 23843 ft 465 kts 307°
2026-05-04 16:48 49.38374 10.41696 23636 ft 448 kts 304°
2026-05-04 16:49 49.41822 10.34106 23173 ft 422 kts 304°
2026-05-04 16:49 49.45166 10.26737 22680 ft 419 kts 304°
2026-05-04 16:50 49.48490 10.19412 22182 ft 416 kts 304°
2026-05-04 16:50 49.51781 10.12145 21684 ft 412 kts 304°
2026-05-04 16:51 49.54493 10.06148 21271 ft 409 kts 304°
2026-05-04 16:51 49.56112 10.02560 21021 ft 407 kts 304°
2026-05-04 16:51 49.59837 9.94277 20444 ft 403 kts 304°
2026-05-04 16:52 49.62499 9.88339 19809 ft 400 kts 304°
2026-05-04 16:52 49.64575 9.83701 19091 ft 395 kts 304°
2026-05-04 16:53 49.67162 9.77912 18159 ft 382 kts 304°
2026-05-04 16:53 49.71659 9.67817 16509 ft 376 kts 304°
2026-05-04 16:54 49.73134 9.64498 15960 ft 373 kts 304°
2026-05-04 16:55 49.78864 9.51566 13813 ft 358 kts 304°
2026-05-04 16:55 49.81626 9.45305 12882 ft 336 kts 304°
2026-05-04 16:56 49.84096 9.39694 12132 ft 303 kts 303°
2026-05-04 16:56 49.86890 9.31444 10868 ft 279 kts 286°
2026-05-04 16:57 49.87444 9.28555 10767 ft 279 kts 286°
2026-05-04 16:57 49.88535 9.22812 10551 ft 277 kts 286°
2026-05-04 16:58 49.90167 9.14242 10177 ft 275 kts 286°
2026-05-04 16:58 49.90708 9.11394 10052 ft 275 kts 286°
2026-05-04 16:59 49.91785 9.05721 9825 ft 273 kts 286°
2026-05-04 17:00 49.94066 8.94496 9547 ft 273 kts 299°
2026-05-04 17:00 49.99007 8.91324 9247 ft 274 kts
2026-05-04 17:01 50.02634 8.92762 9045 ft 273 kts 38°
2026-05-04 17:01 50.04482 8.97763 8772 ft 270 kts 71°
2026-05-04 17:02 50.05715 9.03249 8063 ft 268 kts 71°
2026-05-04 17:02 50.06973 9.08741 7999 ft 269 kts 70°
2026-05-04 17:03 50.07607 9.11476 8000 ft 268 kts 70°
2026-05-04 17:03 50.08238 9.14206 7989 ft 269 kts 70°
2026-05-04 17:03 50.09507 9.19672 7538 ft 267 kts 70°
2026-05-04 17:04 50.10758 9.25072 7063 ft 264 kts 70°
2026-05-04 17:04 50.12009 9.30464 6999 ft 264 kts 70°
2026-05-04 17:05 50.14106 9.34969 7002 ft 263 kts 27°
2026-05-04 17:05 50.17607 9.35023 6999 ft 261 kts 331°
2026-05-04 17:06 50.19599 9.30583 7004 ft 258 kts 279°
2026-05-04 17:06 50.19818 9.27799 6999 ft 259 kts 274°
2026-05-04 17:07 50.20092 9.22179 7001 ft 260 kts 274°
2026-05-04 17:07 50.20179 9.20318 7000 ft 260 kts 274°
2026-05-04 17:07 50.20317 9.16560 6995 ft 259 kts 268°
2026-05-04 17:07 50.19870 9.13905 7001 ft 258 kts 240°
2026-05-04 17:08 50.18769 9.11709 7001 ft 257 kts 226°
2026-05-04 17:08 50.16233 9.07740 6996 ft 259 kts 230°
2026-05-04 17:08 50.15230 9.05419 6852 ft 258 kts 242°
2026-05-04 17:09 50.14508 9.02874 6604 ft 256 kts 249°
2026-05-04 17:09 50.13903 9.00273 6270 ft 255 kts 250°
2026-05-04 17:09 50.13304 8.97700 5883 ft 250 kts 249°
2026-05-04 17:10 50.12138 8.92830 5048 ft 226 kts 249°
2026-05-04 17:10 50.10661 8.86614 4062 ft 178 kts 249°
2026-05-04 17:11 50.10253 8.84895 3840 ft 161 kts 249°
2026-05-04 17:11 50.09876 8.83308 3648 ft 153 kts 249°
2026-05-04 17:11 50.09141 8.80220 3243 ft 149 kts 249°
2026-05-04 17:12 50.08787 8.78730 3044 ft 144 kts 249°
2026-05-04 17:12 50.08103 8.75856 2676 ft 141 kts 249°
2026-05-04 17:13 50.07092 8.71608 2117 ft 139 kts 249°
2026-05-04 17:14 50.06086 8.67384 1567 ft 138 kts 249°
2026-05-04 17:14 50.05748 8.65965 1378 ft 138 kts 249°
2026-05-04 17:14 50.05087 8.63191 1014 ft 137 kts 249°
2026-05-04 17:15 50.04757 8.61805 834 ft 136 kts 249°
2026-05-04 17:15 50.04086 8.58991 469 ft 135 kts 249°
2026-05-04 17:16 50.03504 8.56547 356 ft 101 kts 249°
2026-05-04 17:16 50.03233 8.55368 349 ft 26 kts 255°
2026-05-04 17:17 50.03164 8.55098 350 ft 26 kts 244°
2026-05-04 17:17 50.02955 8.54666 344 ft 11 kts 168°
2026-05-04 17:18 50.02878 8.54780 345 ft 21 kts 131°
2026-05-04 17:18 50.02857 8.55035 348 ft 1 kts 69°
2026-05-04 17:19 50.02873 8.55098 349 ft 10 kts 69°
2026-05-04 17:19 50.02965 8.55492 350 ft 27 kts 71°
2026-05-04 17:20 50.03117 8.56116 351 ft 30 kts 69°
2026-05-04 17:20 50.03279 8.56799 357 ft 32 kts 70°
2026-05-04 17:20 50.03353 8.57114 358 ft 30 kts 71°
2026-05-04 17:21 50.03496 8.57707 361 ft 28 kts 69°
2026-05-04 17:21 50.03624 8.58248 364 ft 26 kts 71°
2026-05-04 17:22 50.03648 8.58432 364 ft 5 kts 115°
2026-05-04 17:22 50.03622 8.58459 363 ft 5 kts 165°
2026-05-04 17:23 50.03527 8.58584 363 ft 3 kts 115°
2026-05-04 17:23 50.03526 8.58587 363 ft 0 kts 115°